Location: *
(43.0409°N, 0.1694°E)
Time: 02:00:59
(UTC+00:00)

Daily predictions for brighter satellites

Satellite Brightness Start Highest point End
(mag) Time Altitude Azimuth Time Altitude Azimuth Time Altitude Azimuth
ATLAS CENTAUR R/B 4.4 01:51:17 42° NE 01:51:17 42° NE 01:58:19 10° NE
ATLAS 2AS CENTAUR R/B 3.8 02:05:28 41° NNE 02:05:28 41° NNE 02:10:00 10° NNE
ATLAS 3B R/B 4.2 01:58:27 10° NNW 02:09:55 31° ESE 02:13:41 10° SE
CZ-2D R/B 4.4 02:32:13 10° N 02:33:28 17° N 02:33:28 17° N
ADEOS II 4.2 02:32:34 10° N 02:34:09 20° N 02:34:09 20° N
Lacrosse 5 rocket 4.3 02:43:59 13° NE 02:43:59 13° NE 02:44:29 10° NE
Cosmos 1655 Rocket 4.5 02:43:43 58° NE 02:43:43 58° NE 02:49:05 10° NNE
NOSS 3-1 (A) 4.5 02:35:30 10° NNW 02:42:49 60° NE 02:51:32 10° SE
USA 281 3.6 02:52:48 10° NNE 02:58:03 53° NNW 02:58:03 53° NNW
Cosmos 1125 Rocket 4.4 03:02:00 46° ENE 03:02:00 46° ENE 03:06:14 10° NNE
COSMOS 2428 3.9 02:56:25 10° NNW 03:01:45 39° ENE 03:07:03 10° SE
Cosmos 2219 Rocket 4.2 03:19:06 16° SSE 03:19:06 16° SSE 03:20:11 10° SSE
NOSS 3-1 (C) 4.2 03:21:27 54° SSW 03:21:27 54° SSW 03:29:04 10° SSE
Sich 1 4.4 03:23:29 10° N 03:27:33 38° ENE 03:31:37 10° SE
PAYLOAD A 4.2 03:24:58 10° NNE 03:29:51 64° ESE 03:30:43 54° SSE
Cosmos 2315 Rocket 4.0 03:25:38 10° NNW 03:31:25 62° WNW 03:31:25 62° WNW
Meteor 1-14 Rocket 4.2 03:28:53 10° NNW 03:34:54 81° W 03:37:22 38° S
Cosmos 2298 Rocket 4.1 03:37:37 59° S 03:38:33 76° ESE 03:43:51 10° NNE
USA 215 3.4 03:36:10 10° ESE 03:42:42 73° NE 03:48:02 16° NW
BREEZE-M DEB (TANK) 4.0 03:43:22 47° SSW 03:44:54 67° SE 04:00:29 10° ENE
CZ-2C R/B 3.4 03:40:20 10° N 03:45:36 51° WNW 03:45:36 51° WNW
CZ-2C R/B 2.1 03:41:36 10° N 03:46:20 80° WNW 03:46:20 80° WNW
Meteor 2-6 Rocket 4.0 03:46:37 64° W 03:46:40 64° WNW 03:52:01 10° N
Cosmos 2150 Rocket 3.9 03:49:26 54° SSW 03:50:42 88° WNW 03:56:00 10° NNE
Meteor 1-10 Rocket 4.1 03:49:08 30° S 03:51:58 86° E 03:57:33 10° N
ATLAS 2AS CENTAUR R/B 4.2 03:52:54 21° NW 03:54:55 23° NNW 04:00:27 10° NNE
ATLAS 3B R/B 3.4 03:57:29 37° SW 03:57:29 37° SW 04:03:33 10° S
Cosmos 1484 Rocket 3.8 03:54:19 10° NNE 03:57:47 42° E 04:00:10 18° SSE
YAOGAN 11 4.0 03:53:18 10° SSE 03:57:48 81° WSW 04:02:17 10° NNW
NOAA 11 4.3 03:52:27 10° NNE 03:57:58 76° ESE 04:02:54 13° S
ALOS 3.9 03:57:01 10° N 03:59:04 20° NNW 03:59:04 20° NNW
Cosmos 1500 Rocket 4.1 03:58:51 10° NNW 04:01:59 42° NW 04:01:59 42° NW
Cosmos 1867 3.5 04:01:27 20° NW 04:05:17 68° WSW 04:10:40 10° SSE
Cosmos 44 Rocket 3.8 04:03:00 25° S 04:05:50 59° ESE 04:10:55 10° NE
SL-08 R/B 4.3 04:01:08 10° S 04:07:15 85° W 04:13:22 10° N
Nadezhda 1 Rocket 4.4 04:02:08 10° N 04:08:24 65° E 04:14:31 10° SSE
BlueWalker 3 1.8 04:08:21 63° NW 04:08:56 85° NE 04:12:47 10° SE
Cosmos 2297 Rocket 2.6 04:08:43 10° S 04:14:16 65° ESE 04:19:52 10° NNE
H-2A R/B 4.1 04:10:51 10° NNE 04:15:38 31° E 04:20:20 10° SSE
Cosmos 1536 2.6 04:12:26 10° NNW 04:16:19 70° W 04:20:09 10° S
USA 229 DEB 3.9 04:10:02 10° NW 04:17:34 84° WSW 04:25:40 10° SSE
USA 229 3.9 04:10:07 10° NW 04:17:39 85° WSW 04:25:43 10° SSE
NOSS 0 Rocket 3.9 04:12:08 10° NNW 04:18:25 86° WSW 04:24:40 10° SSE
Lacrosse 5 rocket 3.0 04:19:10 19° NW 04:19:35 20° NNW 04:22:30 10° NNE
YAOGAN 6 3.7 04:18:31 10° N 04:20:31 27° NNW 04:20:31 27° NNW
Cosmos 1151 Rocket 2.9 04:18:37 16° SSW 04:22:02 77° W 04:26:26 10° N
Cosmos 2237 Rocket 2.5 04:20:01 10° NNW 04:25:42 68° ENE 04:31:19 10° SSE
Cosmos 1386 Rocket 4.4 04:20:28 10° S 04:26:48 84° W 04:33:02 10° N
IRS-1D 4.4 04:22:29 10° N 04:27:02 30° WNW 04:28:00 28° W
Okean 1 3.0 04:25:11 13° S 04:28:36 81° W 04:32:27 10° N
Cosmos 1666 Rocket 3.8 04:25:29 10° N 04:29:52 71° E 04:34:10 10° SSE
Cosmos 1328 Rocket 4.1 04:25:35 10° S 04:29:55 60° E 04:34:16 10° NNE
Envisat 3.5 04:28:34 10° N 04:33:14 37° WNW 04:35:33 24° WSW
SL-16 R/B 4.3 04:29:26 10° N 04:34:18 28° NE 04:39:09 10° ESE
Cosmos 2322 4.4 04:33:19 10° NW 04:38:09 29° WSW 04:42:58 10° SSW
Meteor 2-20 4.4 04:32:13 10° NNW 04:38:22 72° W 04:44:27 10° S
Cosmos 2344 4.0 04:31:20 10° SSW 04:38:58 59° ESE 04:46:08 10° NE
Cosmos 1709 Rocket 4.3 04:34:18 10° S 04:40:39 74° E 04:47:00 10° NNE
COSMOS 2428 3.3 04:40:52 10° NW 04:45:53 32° WSW 04:50:52 10° SSW
CZ-2D R/B 4.0 04:47:11 10° NNE 04:51:31 66° ESE 04:55:50 10° S
BREEZE-M DEB (TANK) 3.9 04:49:02 20° W 04:51:54 62° N 05:08:07 10° ENE
Helios 1A 2.9 04:49:18 10° S 04:53:19 56° WSW 04:57:21 10° NNW
IRS-1C 4.1 04:49:03 10° NNE 04:54:24 77° WNW 04:59:43 10° SSW
Cosmos 1745 Rocket 4.1 04:48:25 10° SSW 04:54:39 59° WNW 05:00:56 10° N
H-2A R/B 2.5 04:52:13 10° N 04:55:39 57° WNW 04:59:03 10° SSW
GP-B 4.3 04:54:18 18° WSW 04:55:56 21° W 04:59:19 10° NNW
Cosmos 1633 Rocket 3.0 04:55:03 10° NNW 04:59:25 67° W 05:03:47 10° S
Meteor 1-27 Rocket 4.1 04:54:15 10° SW 04:59:31 41° WNW 05:04:56 10° N
Cosmos 2227 Rocket 2.3 04:55:14 10° SSW 05:00:54 86° ESE 05:06:38 10° NNE
Cosmos 1726 1.8 04:58:05 10° N 05:01:31 81° W 05:04:56 10° S
Sich 1 4.4 05:01:46 10° NW 05:04:46 19° W 05:07:46 10° SW
Cosmos 2263 Rocket 4.3 05:01:05 10° SSE 05:05:54 30° ESE 05:10:43 10° NE
Cosmos 1733 3.0 05:04:08 10° N 05:07:51 87° W 05:11:31 10° S
Cosmos 1238 4.2 05:06:31 10° N 05:09:34 79° E 05:12:37 10° S
ERS-2 1.7 05:10:52 10° N 05:13:59 58° WNW 05:17:04 10° SSW
SL-08 R/B 3.4 05:11:21 10° SSE 05:16:07 88° ENE 05:21:00 10° NNW
SKYMED 2 3.6 05:12:41 10° SSE 05:17:01 87° WSW 05:21:24 10° NNW
PSLV R/B 4.1 05:16:10 10° NNE 05:20:16 60° E 05:24:22 10° S
ARIANE 5 R/B 2.8 05:17:52 10° N 05:22:39 45° WNW 05:27:22 10° SW
Meteor 2-4 Rocket 3.8 05:18:09 10° SSW 05:24:01 70° W 05:29:52 10° N
USA 215 3.9 05:20:11 10° S 05:26:00 34° SW 05:31:52 10° WNW
ATLAS CENTAUR R/B 2.5 05:22:39 10° NNW 05:26:01 38° NE 05:29:24 10° ESE
Cosmos 1805 3.1 05:24:23 10° NNW 05:28:10 74° W 05:31:55 10° S
IRS-P3 4.4 05:23:24 10° N 05:28:31 47° WNW 05:33:35 10° SW
Meteor 1-18 Rocket 4.3 05:23:42 10° SSW 05:29:32 67° WNW 05:35:19 10° N
Cosmos 1980 4.3 05:26:10 10° NW 05:31:11 34° WSW 05:36:12 10° SSW
Cosmos 1484 Rocket 4.5 05:29:37 10° NW 05:31:28 13° WNW 05:33:18 10° W
Cosmos 2181 Rocket 4.0 05:28:57 10° N 05:35:08 81° W 05:41:15 10° S
Cosmos 1470 Rocket 3.9 05:30:55 10° NNW 05:35:11 45° W 05:39:26 10° SSW
